Das Wetter in  D-61279 Heinzenberg / Taunus





Wetter Minimum- & Maximum-Werte im Februar 2013

Standort: Heinzenberg / Taunus - Höhe 297 m         8 24' 1" Ost 50 21' 51" Nord
(   3-stündige Aktualisierung    letzte Aktualisierung um 19:04 am 28.02.2013  )


Messgrösse

Minimum

Maximum

Durchschnitt

Temperatur West /
Luftfeuchte West
Anklicken für Monats-Diagramm

-10,8 C

07:15
14.02.2013

57 %

15:42
05.02.2013

7,2 C

13:06
04.02.2013

92 %

09:18
17.02.2013

Temp

-0,6 C

Feuchte

81 %

Temperatur Ost /
Luftfeuchte Ost
Anklicken für Monats-Diagramm

-10,5 C

07:15
14.02.2013

--

--
--

7,2 C

13:06
04.02.2013

--

--
--

-0,5 C

--

Luftdruck Anklicken für Monats-Diagramm

990,5 hPa

23:14
01.02.2013

1032,8 hPa

10:03
27.02.2013

1016,5 hPa

Taupunkt

-13,9 C

07:15
14.02.2013

5,7 C

15:11
04.02.2013

-3,4 C

Windchill
( gefühlte Temperatur )

-19,0 C

06:27
11.02.2013

4,9 C

14:14
01.02.2013

-3,3 C

Windgeschwindigkeit /
Windrichtung
Anklicken für Monats-Diagramm

---

64,2 km/h / W

10:18
05.02.2013

6,9 km/h
W

Helligkeit /
Sonnenschein
Anklicken für Monats-Diagramm
Anklicken für Monats-Diagramm

Sonnenschein:

28:50 Stunden

Max: 6:40 Std am
10.02.2013

65,1 klux

11:49
07.02.2013

11,2 klux

Solarstrahlung Anklicken für Monats-Diagramm

---

445 W/m

11:49
07.02.2013

84 W/m

Regenmenge
    Februar 2013
Anklicken für Monats-Diagramm

Insgesamt 36,5 l/m

in 106:26 Stunden
an 21 Tagen

10,6 l/m

10:44
01.02.2013

Gesamtmenge

36,5 l/m

Regen-Tage
    Februar 2013
Anklicken für Monats-Diagramm

>   0 mm/Tag

>   2 mm/Tag

>   5 mm/Tag

> 10 mm/Tag

> 20 mm/Tag

21 Tage     
6 Tage     
2 Tage     
  1 Tag     
0 Tage     

Eisige Tage Februar 2013 / 2012

Tmin ≤ -10C     

  1 Tag

/

12 Tage

Eistage Februar 2013 / 2012

Tmax <     0C     

6 Tage

/

13 Tage

Frosttage Februar 2013 / 2012

Tmin ≤     0C     

21 Tage

/

20 Tage

Kalte Tage Februar 2013 / 2012

Tmax <   10C     

28 Tage

/

25 Tage

Warme Tage Februar 2013 / 2012

Tmax ≥   20C     

0 Tage

/

0 Tage

Sommertage Februar 2013 / 2012

Tmax ≥   25C     

0 Tage

/

0 Tage

Heisse Tage Februar 2013 / 2012

Tmax ≥   30C     

0 Tage

/

0 Tage


Monatsdiagramm Februar 2013

Die Kurven zeigen den Durchschnittswert des jeweiligen Tages an


Wetter-Monatsübersicht Februar 2013
Datum
  Temperatur
   Luftdruck
   Wind
  Regen
   Luftfeuchte
   Helligkeit

Sonnen-
schein


Temp.

Min.
Temp.

Max.
Temp.


Luftdruck

Min.
Luftdruck

Max.
Luftdruck

-Geschw.
Haupt-Richtg.

Max.
Wind

Menge /
Dauer


Feuchte

Min.
Feuchte

Max.
Feuchte


Helligkeit

Max.
Helligkeit

1.
Februar
5,2 C4,2 C
11:24
6,2 C
00:04
1003,3 hPa990,5 hPa
23:14
1014,3 hPa
00:49
15,2 km/h
W-SW
43,7 km/h
00:29  
10,6 l/m
9:15 Stunden
83 %72 %
00:04
91 %
21:19
3,0 klux7,6 klux
12:44
--- 
2.
Februar
2,0 C0,0 C
19:09
4,6 C
00:04
1003,4 hPa991,6 hPa
00:04
1013,9 hPa
23:15
14,3 km/h
NW
31,5 km/h
00:04  
0,3 l/m
1:10 Stunden
83 %75 %
16:44
90 %
00:04
6,13 klux31,50 klux
11:14
10 Min 
3.
Februar
1,7 C0,4 C
19:35
3,3 C
15:05
1016,4 hPa1011,7 hPa
23:56
1020,0 hPa
09:25
21,7 km/h
W
43,0 km/h
15:35  
0,2 l/m
3:11 Stunden
81 %74 %
15:05
90 %
23:06
7,0 klux23,8 klux
12:05
--- 
4.
Februar
4,5 C1,5 C
00:01
7,2 C
13:06
1010,7 hPa1008,9 hPa
13:06
1012,4 hPa
21:26
25,0 km/h
W
45,8 km/h
12:26  
0,9 l/m
7:25 Stunden
88 %81 %
22:22
91 %
06:01
6,2 klux37,8 klux
11:26
10 Min 
5.
Februar
2,9 C-0,7 C
23:58
4,8 C
14:47
1002,5 hPa998,4 hPa
20:17
1010,3 hPa
00:02
24,7 km/h
W
64,2 km/h
10:18  
0,5 l/m
1:45 Stunden
77 %57 %
15:42
88 %
10:37
14,3 klux49,4 klux
12:02
2:39 Std 
6.
Februar
-0,1 C-2,2 C
23:54
1,4 C
14:58
999,5 hPa995,3 hPa
08:28
1006,0 hPa
23:54
6,3 km/h
W-SW
27,5 km/h
02:23  
5,3 l/m
8:30 Stunden
85 %79 %
02:28
89 %
19:18
8,2 klux21,4 klux
14:33
--- 
7.
Februar
-0,2 C-2,2 C
00:04
3,0 C
14:34
1009,7 hPa1005,8 hPa
01:44
1012,2 hPa
23:55
8,6 km/h
N-NW
32,6 km/h
12:29  
1,2 l/m
35 Minuten
84 %73 %
15:04
90 %
01:44
17,2 klux65,1 klux
11:49
3:11 Std 
8.
Februar
-1,3 C-2,4 C
00:15
0,8 C
12:55
1013,5 hPa1011,1 hPa
04:35
1016,4 hPa
22:05
3,7 km/h
O-NO
18,6 km/h
17:05  
2,0 l/m
2:45 Stunden
86 %77 %
17:00
90 %
05:25
8,4 klux57,9 klux
12:30
20 Min 
9.
Februar
-2,5 C-4,7 C
06:35
-0,4 C
13:10
1019,1 hPa1016,4 hPa
00:00
1020,7 hPa
09:40
1,0 km/h
W
10,1 km/h
12:05  
0,3 l/m
10 Minuten
81 %70 %
16:50
88 %
04:00
16,9 klux60,1 klux
13:10
2:35 Std 
10.
Februar
-3,8 C-7,7 C
08:41
0,5 C
15:21
1014,2 hPa1007,4 hPa
23:02
1018,9 hPa
01:51
8,9 km/h
O-SO
27,4 km/h
15:56  
---
76 %61 %
15:51
86 %
09:11
24,5 klux47,0 klux
12:51
6:40 Std 
11.
Februar
-3,2 C-5,4 C
02:42
-0,6 C
16:02
1005,1 hPa1003,7 hPa
16:02
1007,4 hPa
01:02
9,5 km/h
O-SO
26,2 km/h
06:27  
---
70 %63 %
15:42
74 %
23:18
12,7 klux22,2 klux
13:02
--- 
12.
Februar
-2,4 C-3,4 C
00:43
-0,4 C
14:18
1012,7 hPa1007,2 hPa
00:03
1018,5 hPa
23:14
5,8 km/h
NO
23,7 km/h
12:28  
---
68 %61 %
14:43
75 %
00:13
11,0 klux53,7 klux
13:23
25 Min 
13.
Februar
-2,8 C-8,3 C
23:50
1,1 C
15:14
1024,4 hPa1018,5 hPa
00:04
1028,7 hPa
23:50
0,3 km/h
SO
7,9 km/h
12:54  
---
67 %57 %
14:39
75 %
08:19
14,1 klux44,6 klux
12:09
40 Min 
14.
Februar
-4,2 C-10,8 C
07:15
1,2 C
13:05
1022,4 hPa1016,3 hPa
22:56
1028,8 hPa
01:25
5,9 km/h
SO
19,7 km/h
15:15  
0,8 l/m
1:05 Stunden
71 %62 %
13:15
81 %
09:40
18,9 klux42,9 klux
11:10
4:15 Std 
15.
Februar
-0,2 C-2,0 C
02:16
1,7 C
16:11
1019,3 hPa1016,3 hPa
00:01
1023,2 hPa
21:21
0,3 km/h
NW
9,8 km/h
13:11  
0,8 l/m
3:25 Stunden
84 %77 %
00:01
88 %
22:42
8,3 klux27,2 klux
12:56
--- 
16.
Februar
1,7 C0,8 C
06:12
3,1 C
14:52
1024,3 hPa1023,2 hPa
00:02
1025,3 hPa
23:48
1,3 km/h
W
12,6 km/h
15:12  
1,2 l/m
3:29 Stunden
89 %88 %
00:02
90 %
09:57
5,3 klux12,6 klux
12:52
--- 
17.
Februar
1,7 C0,3 C
07:03
4,2 C
14:48
1024,4 hPa1022,9 hPa
16:38
1025,4 hPa
07:08
0,4 km/h
O
9,8 km/h
14:03  
---
87 %81 %
19:18
92 %
09:18
8,0 klux25,0 klux
13:53
--- 
18.
Februar
0,5 C-3,3 C
08:04
4,5 C
13:14
1022,1 hPa1020,4 hPa
23:45
1023,8 hPa
08:04
0,6 km/h
O
11,0 km/h
12:04  
---
80 %70 %
14:04
88 %
09:34
18,6 klux51,8 klux
12:59
3:55 Std 
19.
Februar
-0,8 C-2,8 C
02:50
0,6 C
15:00
1018,1 hPa1016,0 hPa
15:00
1020,6 hPa
02:40
1,8 km/h
W-NW
10,3 km/h
16:10  
2,7 l/m
10:40 Stunden
87 %82 %
00:00
91 %
22:05
6,5 klux18,7 klux
14:35
--- 
20.
Februar
-2,1 C-5,3 C
08:06
0,5 C
14:31
1023,1 hPa1019,2 hPa
00:01
1024,8 hPa
21:46
5,6 km/h
N-NO
28,3 km/h
15:11  
---
3:30 Stunden
80 %68 %
14:36
90 %
00:01
16,6 klux56,7 klux
13:26
1:45 Std 
21.
Februar
-3,3 C-5,0 C
21:52
-1,0 C
14:02
1022,2 hPa1019,8 hPa
23:08
1024,9 hPa
01:37
7,1 km/h
NO
25,1 km/h
13:12  
---
3:45 Stunden
76 %67 %
14:02
82 %
02:02
13,7 klux58,6 klux
11:27
55 Min 
22.
Februar
-4,8 C-6,9 C
05:03
-2,8 C
13:03
1016,9 hPa1014,4 hPa
16:38
1020,0 hPa
01:53
10,1 km/h
NO
25,3 km/h
16:38  
---
7:35 Stunden
75 %68 %
16:48
80 %
08:03
13,5 klux31,3 klux
12:43
20 Min 
23.
Februar
-4,7 C-5,9 C
07:19
-3,3 C
13:54
1013,6 hPa1012,7 hPa
04:29
1014,8 hPa
01:19
6,8 km/h
NO
23,1 km/h
01:44  
3,0 l/m
15:41 Stunden
81 %77 %
00:04
85 %
22:09
11,6 klux27,5 klux
12:04
--- 
24.
Februar
-2,2 C-4,8 C
00:20
0,3 C
13:45
1014,4 hPa1012,5 hPa
07:00
1017,2 hPa
21:50
0,3 km/h
NO
11,9 km/h
12:50  
2,7 l/m
4:15 Stunden
86 %81 %
13:45
88 %
22:36
9,3 klux27,8 klux
11:05
--- 
25.
Februar
0,2 C-0,8 C
00:11
1,2 C
14:36
1019,9 hPa1016,2 hPa
00:01
1025,4 hPa
23:42
0,3 km/h
NO
11,2 km/h
15:56  
4,0 l/m
15:40 Stunden
90 %88 %
00:01
90 %
03:31
5,5 klux11,8 klux
14:36
--- 
26.
Februar
1,4 C0,1 C
06:37
3,2 C
13:42
1029,0 hPa1025,3 hPa
00:12
1030,5 hPa
23:48
3,3 km/h
O-NO
19,7 km/h
19:42  
---
2:20 Stunden
89 %86 %
14:02
91 %
03:12
11,0 klux28,5 klux
09:12
50 Min 
27.
Februar
-0,2 C-0,7 C
07:33
0,8 C
00:03
1031,3 hPa1030,5 hPa
14:08
1032,8 hPa
10:03
5,6 km/h
O-NO
21,3 km/h
05:08  
---
15 Minuten
87 %83 %
14:33
91 %
04:18
6,8 klux15,0 klux
11:58
--- 
28.
Februar
1,0 C-1,0 C
07:19
3,9 C
14:09
1027,8 hPa1026,0 hPa
15:09
1030,7 hPa
00:09
0,3 km/h
NO
9,4 km/h
14:24  
---
84 %76 %
16:04
88 %
02:04
10,3 klux25,5 klux
12:19
--- 



Februar
2013

Temperatur

  

Luftdruck

  

Wind

  

Regen

  

Luftfeuchte

  

Helligkeit

Sonnen-
schein

Min

Max

Min

Max

Max

Max

Min

Max

Max

Max

-0,6 C

-10,8 C

07:15 Uhr
14.02.2013

7,2 C

13:06 Uhr
04.02.2013

1016,5 hPa

990,5 hPa

23:14 Uhr
01.02.2013

1032,8 hPa

10:03 Uhr
27.02.2013

6,9 km/h

W

64,2 km/h

10:18 Uhr
05.02.2013

10,6 l/m

9:15 Stunden
01.02.2013

81 %

57 %

15:42 Uhr
05.02.2013

92 %

09:18 Uhr
17.02.2013

11,2 klux

65,1 klux

11:49 Uhr
07.02.2013

6:40 Std

am
10.02.2013

Gesamt

Gesamt

36,5 l/m

21 Tage
106:26 h

28:50 Std


Wetter-Diagramme Februar 2013     Heinzenberg / Taunus   
TemperaturLuftfeuchte
SolarstrahlungLuftdruck
HelligkeitSonnenschein
RegenmengeRegendauer
Wind-GeschwindigkeitWind-Richtung